This is the latest recevied weather packets stored in our database for station/object HARMALA. If no packets are shown the sender has not sent any weather packets the latest 10 day(s).
| Time | Temp. | Humidity | Pressure | Rain* | Wind** | Luminosity | Snow |
|---|---|---|---|---|---|---|---|
| 1777904834 | 10.56° C | 54% | 1000.3 hPa | 0 mm | - | - | - |
| 1777903634 | 11.11° C | 52% | 1000.4 hPa | 0 mm | - | - | - |
| 1777902434 | 11.11° C | 52% | 1000.5 hPa | 0 mm | - | - | - |
| 1777901234 | 11.67° C | 49% | 1000.7 hPa | 0 mm | - | - | - |
| 1777900034 | 11.11° C | 48% | 1000.9 hPa | 0 mm | - | - | - |
| 1777898834 | 12.22° C | 45% | 1000.9 hPa | 0 mm | - | - | - |
| 1777897634 | 10.56° C | 46% | 1001.2 hPa | 0 mm | - | - | - |
| 1777896434 | 10° C | 45% | 1001.3 hPa | 0 mm | - | - | - |
| 1777895234 | 10° C | 40% | 1001.5 hPa | 0 mm | - | - | - |
| 1777894033 | 10° C | 39% | 1001.7 hPa | 0 mm | - | - | - |
| 1777892833 | 8.89° C | 35% | 1001.9 hPa | 0 mm | - | - | - |
| 1777891633 | 9.44° C | 36% | 1002.1 hPa | 0 mm | - | - | - |
| 1777890433 | 8.89° C | 36% | 1002.4 hPa | 0 mm | - | - | - |
| 1777889233 | 8.33° C | 37% | 1002.9 hPa | 0 mm | - | - | - |
| 1777888033 | 8.33° C | 39% | 1003.3 hPa | 0 mm | - | - | - |
| 1777886834 | 8.33° C | 38% | 1003.5 hPa | 0 mm | - | - | - |
| 1777885633 | 7.78° C | 44% | 1003.5 hPa | 0 mm | - | - | - |
| 1777884433 | 7.22° C | 45% | 1003.7 hPa | 0 mm | - | - | - |
| 1777883234 | 7.78° C | 45% | 1003.7 hPa | 0 mm | - | - | - |
| 1777882033 | 7.78° C | 45% | 1003.7 hPa | 0 mm | - | - | - |
| 1777880833 | 7.78° C | 46% | 1003.8 hPa | 0 mm | - | - | - |
| 1777879633 | 7.78° C | 45% | 1004 hPa | 0 mm | - | - | - |
| 1777878433 | 7.78° C | 43% | 1004.1 hPa | 0 mm | - | - | - |
| 1777877233 | 7.78° C | 44% | 1004.2 hPa | 0 mm | - | - | - |
| 1777876033 | 7.22° C | 50% | 1004.4 hPa | 0 mm | - | - | - |
* Rain latest hour (hover to see other rain measurements)
** Current wind speed in m/s (hover to see current wind gust speed)